Regional Weather Roundup
Issued by NWS

Home | Current Version | Previous Version | Graphics & Text | Print | Product List | Glossary Off
Versions: 1 2 3 4 5 6 7 8 9 10 11 12 13 14 15 16 17 18 19 20 21 22 23 24 25 26 27 28 29 30 31 32 33 34 35 36 37 38 39 40 41 42 43 44 45 46 47 48 49 50

000
ASUS44 KFWD 271415
RWRTX
NORTH TEXAS HOURLY WEATHER ROUNDUP
NATIONAL WEATHER SERVICE FORT WORTH TX
800 AM CST TUE JAN 27 2015

NOTE: "FAIR" INDICATES FEW OR NO CLOUDS BELOW 12,000 FEET WITH NO
SIGNIFICANT WEATHER AND/OR OBSTRUCTIONS TO VISIBILITY.

TXZ118-119-271500-
DALLAS/FORT WORTH METROPLEX

CITY           SKY/WX    TMP DP  RH WIND       PRES   REMARKS
DFW AIRPORT    PTCLDY    44  36  73 S5        30.15R
DALLAS LOVE    PTCLDY    48  38  68 SW3       30.16R
FTW MEACHAM    CLEAR     53  37  54 NW6       30.15R
DAL-EXECUTIVE  CLEAR     53  37  54 W6        30.15R
FTW-ALLIANCE   PTCLDY    45  36  70 CALM      30.15R
FTW-SPINKS     CLEAR     46  36  66 CALM      30.17R
ARLINGTON      CLEAR     42  34  73 CALM      30.16R
ADDISON        CLEAR     46  36  66 W3        30.17R
MESQUITE       CLEAR     45  37  76 NW5       30.15R
LANCASTER      CLEAR     48  36  63 W6        30.16R
$$

TXZ091>094-102>105-117-120-121-131>134-271500-
NORTH CENTRAL TEXAS

CITY           SKY/WX    TMP DP  RH WIND       PRES   REMARKS
SHRMAN/DENISON CLEAR     45  40  82 CALM      30.16R
GAINESVILLE    CLEAR     43  36  76 CALM      30.18R
BOWIE          CLEAR     45  37  75 W6        30.16R
BRIDGEPORT     CLEAR     44  37  77 SW5       30.18R
DECATUR        CLEAR     47  36  65 W7        30.16R
DENTON         CLEAR     40  35  83 CALM      30.15R
MCKINNEY       CLEAR     40  35  83 N5        30.15R WCI  37
GREENVILLE     CLEAR     39  37  93 CALM      30.14R
ROCKWALL       CLEAR     46  38  74 NW5       30.14R
TERRELL        CLEAR     42  36  79 CALM      30.15R
WAXAHACHIE     CLEAR     49  38  66 W7        30.16R
CLEBURNE       CLEAR     50  36  57 NW9       30.17R
GRANBURY       CLEAR     40  35  84 CALM      30.19R
$$

TXZ083>090-098>101-113>116-127>130-139>142-154-155-271500-
WESTERN NORTH TEXAS

CITY           SKY/WX    TMP DP  RH WIND       PRES   REMARKS
WICHITA FALLS  PTCLDY    44  35  70 W6        30.16R
WF-KICKAPOO    CLEAR     37  30  76 W8        30.18R WCI  31
VERNON         CLEAR     41  32  70 W8        30.18R WCI  36
ABILENE        CLEAR     40  33  76 S5        30.21R WCI  37
ABILENE-DYESS  CLEAR     39  34  81 CALM      30.20R
BRECKENRIDGE   PTCLDY    46  34  62 MISG      30.19R
GRAHAM         CLEAR     36  33  90 CALM      30.17R
MINERAL WELLS  CLEAR     39  34  82 NW3       30.16R
STEPHENVILLE   PTCLDY    47  35  63 NW5       30.20R
COMANCHE       PTCLDY    47  37  65 CALM      30.18R
BROWNWOOD      CLEAR     36  32  87 CALM      30.21R
COLEMAN        CLEAR     46  37  72 SW3       30.20R
BRADY          CLEAR     43  36  75 W7        30.21R WCI  39
$$

TXZ143>147-156>162-174-175-271500-
CENTRAL TEXAS

CITY           SKY/WX    TMP DP  RH WIND       PRES   REMARKS
WACO           PTCLDY    41  38  89 SW3       30.16R
WACO-TSTC      CLEAR     45  37  76 CALM      30.16R
WACO-MCGREGOR  PTCLDY    45  36  70 S3        30.17R
HILLSBORO      CLEAR     47  36  65 N3        30.15R
CORSICANA      CLEAR     48  38  68 NW5       30.15R
MEXIA          CLEAR     51  38  61 NW9       30.13R
HEARNE         PTCLDY    39  37  94 CALM      30.16R
CAMERON        CLEAR     49  39  67 W6        30.16R
TEMPLE         PTCLDY    45  34  65 NW5       30.15R
KILLEEN        PTCLDY    56  36  47 W9        30.17R
KILLEEN-SKYLRK PTCLDY    52  34  50 NW6       30.15R
FORT HOOD      PTCLDY    51  37  57 MISG      30.16R
GATESVILLE     CLEAR     43  36  75 CALM      30.19R
HAMILTON       PTCLDY    48  37  63 W13       30.18R
LAMPASAS       CLEAR     49  39  68 W3        30.18R
$$

TXZ095>097-106>112-122>126-135>138-148>153-164>167-271500-
EAST TEXAS

CITY           SKY/WX    TMP DP  RH WIND       PRES   REMARKS
PARIS          CLEAR     46  37  71 N7        30.14R
SULPHUR SPRNGS CLEAR     47  38  70 W3        30.15R
MOUNT PLEASANT CLEAR     39  38  95 CALM      30.15R
GILMER         CLEAR     42  37  84 CALM      30.13R
MINEOLA        CLEAR     37  36  93 CALM      30.14R
TYLER          CLEAR     45  38  76 CALM      30.13R
LONGVIEW       CLEAR     42  38  85 NW5       30.12R WCI  39
MARSHALL       CLEAR     38  36  91 CALM      30.14R
ATHENS         CLEAR     36  36 100 CALM      30.14R
PALESTINE      CLEAR     40  38  93 N3        30.15R
HENDERSON      CLEAR     38  37  96 CALM      30.14R
NACOGDOCHES    CLEAR     37  34  87 CALM      30.13R
LUFKIN         CLEAR     45  39  79 CALM      30.12R
$$

SUPPLEMENTAL OBSERVATIONS (CENTRAL)

CITY           SKY/WX    TMP DP  RH WIND       PRES   REMARKS
LAKE TEXOMA      N/A     48  39  71 W3          N/A
CADDO GRASSLND   N/A     39  36  87 S3          N/A
PAT MAYSE LAKE   N/A     43  41  93 S2          N/A
GREENVILLE       N/A     43  37  81 W1          N/A
CEDAR HILL       N/A     48  36  61 E1          N/A
PALESTINE        N/A     46  39  76 CALM        N/A
MCGREGOR         N/A     48  37  66 SW2         N/A
TEMPLE           N/A     54  37  54 NW7         N/A
$$

SUPPLEMENTAL OBSERVATIONS (WEST)

CITY           SKY/WX    TMP DP  RH WIND       PRES   REMARKS
MILLERS CREEK    N/A     37  34  87 SW8         N/A  WCI  31
POSSUM KINGDOM   N/A     50  34  53 W6          N/A
LBJ GRASSLAND    N/A     45  36  70 CALM        N/A
GRANBURY         N/A     39  34  81 NW2         N/A
HAMBY            N/A     37  32  81 SE2         N/A
$$

SUPPLEMENTAL OBSERVATIONS (EAST)

CITY           SKY/WX    TMP DP  RH WIND       PRES   REMARKS
CLARKSVILLE      N/A     48  39  71 NW3         N/A
TEXARKANA        N/A     32  30  93 CALM        N/A
LINDEN           N/A     39  34  81 CALM        N/A
CADDO LAKE       N/A     36  34  93 CALM        N/A
GILMER           N/A     41  37  87 CALM        N/A
HENDERSON        N/A     39  36  87 N1          N/A
LUFKIN           N/A     43  39  87 MISG        N/A
S SABINE NF      N/A     39  34  81 CALM        N/A
$$

SUPPLEMENTAL OBSERVATIONS ARE A COLLECTION OF AUTOMATED INSTRUMENTS
THAT ARE MAINTAINED BY A VARIETY OF FEDERAL AND STATE AGENCIES.
CERTAIN ELEMENTS...SUCH AS HUMIDITY VALUES AND SUSTAINED WIND
SPEEDS...MAY BE APPROXIMATED.



USA.gov is the U.S. government's official web portal to all federal, state and local government web resources and services.